Location: Newark
(33.9035°S, 18.4112°E)
Time: 01:09:58
(UTC+00:00)

STARLINK-1144 - Pass Details

Date: 25 January 2020
Orbit: 528 x 531 km, 53.0° (Epoch: 17 February)

Event Time Altitude Azimuth Distance (km) Brightness Sun altitude
Exits shadow 00:32:24 16° 124° (ESE) 1,440 6.3 -32.4°
Drops below altitude 10° 00:33:15 10° 127° (SE) 1,769 6.9 -32.4°
Enters shadow 01:32:07 -65° 312° (NW) 12,105 10.4 -25.6°
